Temp
20 20 20 20 23 22 23 24 25 26 26 26 26 26 28 28 28 28 30 29 29 28 27 26 26 25 25 25 24 24 23 23 22 22 22 22 22 21 21 20 20 20 20 19 19 18 18 17 17
19 20 20 19 22 23 25 24 25 27 27 26 26 26 27 28 27 28 30 29 29 28 27 27 26 25 26 25 25 24 24 23 22 22 22 22 22 22 21 20 20 19 19 19 19 18 17 17 16
19 19 20 22 22 23 25 24 27 26 25 25 27 27 27 28 28 29 30 29 29 28 27 27 27 26 26 26 25 25 24 23 22 22 22 22 22 21 21 21 20 20 19 18 18 18 17 17 16
18 19 18 21 22 23 24 25 24 25 26 25 26 28 27 28 28 29 29 29 28 28 27 27 27 26 26 26 26 25 24 23 23 23 22 22 22 21 21 21 20 20 20 19 19 18 17 17 16
18 18 22 20 22 22 23 23 23 25 25 26 26 28 27 28 28 29 29 29 28 28 27 27 27 27 26 27 26 26 25 24 24 23 23 22 22 22 21 21 20 20 20 19 18 18 17 17 17
18 17 20 21 22 23 24 24 24 25 26 26 27 27 27 28 28 29 29 29 28 28 27 27 27 26 26 26 25 25 24 24 24 23 23 23 22 21 21 21 20 20 20 19 18 18 18 17 16
20 18 20 20 21 23 24 24 25 26 26 27 26 27 27 28 28 29 28 28 28 27 27 27 27 26 26 26 25 25 24 24 23 23 22 22 22 21 21 21 20 20 19 19 18 18 17 17 16
19 20 21 21 22 23 24 24 25 25 27 26 26 27 28 27 28 28 28 28 27 27 27 27 27 26 26 26 26 25 24 24 23 23 22 21 21 21 21 20 20 20 19 19 18 17 17 16 16
18 20 21 21 21 23 23 24 24 24 25 25 26 26 25 26 27 27 28 27 27 27 27 27 26 26 26 26 26 25 24 24 23 23 22 21 21 20 20 20 20 19 19 19 18 17 16 16 16
19 20 21 22 23 22 24 23 24 24 24 25 25 25 26 26 26 26 27 27 27 27 27 27 27 27 26 26 25 25 25 24 24 23 22 21 21 20 20 20 19 19 18 18 17 16 16 16 15
19 19 21 21 21 22 23 24 23 24 24 25 25 25 25 26 26 25 25 26 26 27 27 27 27 27 26 26 26 25 25 25 24 23 23 21 21 20 19 19 18 18 18 18 17 16 16 14 15
19 19 20 21 20 21 22 22 23 23 23 23 22 23 23 23 25 26 26 26 26 26 26 26 27 27 27 26 26 26 25 25 24 24 23 22 21 21 19 19 18 18 18 18 17 17 16 15 15
18 20 19 20 20 20 20 21 22 22 22 22 22 21 22 22 23 24 25 25 26 26 27 27 26 26 26 26 26 26 26 25 25 24 23 22 22 21 19 19 19 18 19 18 18 17 15 14 14
19 19 19 19 19 19 20 21 21 21 21 21 21 22 22 22 22 23 24 25 26 26 26 26 26 26 26 26 26 26 26 25 25 24 23 22 22 21 21 19 19 18 18 18 17 16 15 14 14
17 18 19 19 19 19 19 20 22 21 21 21 21 21 22 22 22 24 24 24 25 25 26 26 26 26 26 26 26 26 26 26 25 24 24 23 21 21 20 19 18 18 18 17 17 16 15 15 14
17 17 17 20 18 19 19 20 23 23 22 22 22 23 23 23 23 24 24 25 25 25 25 25 26 26 26 26 26 26 26 26 25 24 24 24 22 21 19 18 17 17 17 16 16 16 15 15 14
16 17 17 19 20 19 19 20 23 22 22 23 22 22 22 22 23 23 24 24 24 24 24 25 26 26 26 26 26 26 25 25 24 24 23 23 22 20 19 18 17 16 16 16 15 15 15 14 14
16 16 18 18 20 19 19 20 22 22 21 22 22 22 22 22 22 23 23 24 24 24 25 26 26 26 26 26 26 26 25 25 24 23 24 22 21 19 18 17 16 15 15 14 15 15 14 14 13
15 16 16 18 19 19 19 20 21 21 20 21 21 21 21 21 21 21 22 23 23 23 25 25 25 26 26 26 26 26 26 25 25 24 23 21 20 19 18 17 16 15 15 15 14 14 14 13 13
14 14 14 15 17 17 19 18 19 19 19 20 20 20 20 20 20 20 22 23 23 24 24 25 25 26 26 27 26 25 25 25 24 23 21 20 19 19 18 17 16 16 15 14 14 14 14 13 13
14 13 14 14 16 17 16 17 18 19 19 19 19 19 19 19 19 20 22 23 23 24 24 25 25 26 26 26 26 25 25 24 23 22 21 20 18 18 17 17 16 15 15 14 14 14 13 13 13
13 14 15 15 15 15 17 16 19 20 20 20 19 19 19 19 19 21 22 22 23 24 24 24 25 26 26 26 26 25 25 24 23 22 20 18 18 17 17 16 15 15 15 14 14 13 13 13 12
13 14 14 14 14 14 15 15 18 20 19 20 20 20 19 19 19 19 20 20 23 23 23 24 25 26 26 25 25 24 23 22 21 20 18 18 17 17 16 16 15 15 15 14 14 13 13 12 11
14 14 14 14 14 13 14 15 18 19 20 21 21 20 19 19 19 19 21 21 22 22 23 24 25 25 24 23 23 22 22 21 20 19 18 17 17 16 15 15 15 15 14 14 13 13 12 12 12
13 13 12 11 12 13 16 15 17 18 19 19 20 19 20 19 19 20 21 22 22 22 23 24 24 24 23 22 21 21 20 19 18 18 17 17 16 16 15 15 15 14 14 13 13 13 12 12 12
13 13 13 12 13 14 14 14 17 18 19 19 18 18 19 19 19 18 20 21 22 22 23 23 23 22 21 20 19 19 18 17 17 17 16 16 16 16 15 15 14 14 13 13 13 12 12 12 12
13 12 14 13 13 15 15 16 18 18 19 20 20 19 19 18 18 18 20 21 22 22 22 21 20 20 19 19 18 17 17 17 16 16 16 16 15 15 15 14 14 13 13 13 12 12 12 12 12
13 14 12 13 12 13 15 15 17 18 18 18 18 18 17 17 18 16 17 19 20 20 20 19 18 19 18 17 17 16 16 16 16 16 16 15 15 15 14 14 13 13 12 13 12 12 12 12 12
12 12 13 14 14 14 15 17 17 18 16 16 17 17 18 17 17 14 13 15 16 18 18 17 17 17 16 16 16 16 16 16 16 15 15 15 14 14 14 13 13 13 13 12 12 12 13 13 12
11 11 12 12 13 13 14 15 17 16 16 15 16 17 17 16 16 13 13 14 15 15 16 17 16 16 16 16 16 16 16 15 15 15 14 14 14 14 13 13 13 13 13 13 13 13 13 12 12
Height
1518 1520 1521 1523 1525 1525 1521 1511 1504 1502 1499 1497 1497 1496 1492 1494 1496 1505 1493 1497 1500 1502 1504 1506 1508 1509 1510 1513 1516 1519 1521 1523 1526 1527 1528 1529 1530 1531 1531 1530 1530 1531 1531 1531 1531 1531 1531 1531 1531
1518 1519 1520 1522 1523 1523 1510 1504 1502 1498 1496 1494 1494 1493 1496 1493 1493 1493 1494 1497 1500 1503 1504 1505 1508 1509 1510 1512 1515 1517 1519 1522 1524 1526 1527 1528 1529 1530 1530 1530 1530 1530 1530 1531 1531 1531 1531 1531 1531
1517 1519 1520 1518 1519 1515 1506 1498 1495 1497 1496 1495 1492 1491 1492 1490 1491 1492 1494 1497 1500 1503 1506 1506 1508 1509 1510 1512 1514 1516 1517 1520 1522 1523 1526 1527 1528 1528 1528 1529 1529 1529 1529 1529 1529 1530 1530 1530 1530
1517 1521 1521 1516 1511 1506 1499 1494 1497 1497 1493 1493 1491 1489 1488 1487 1487 1491 1494 1497 1500 1501 1504 1507 1509 1509 1509 1511 1512 1513 1515 1517 1519 1520 1522 1524 1525 1525 1526 1527 1527 1528 1528 1528 1528 1528 1529 1529 1529
1517 1518 1514 1513 1506 1501 1498 1497 1498 1497 1496 1491 1491 1486 1487 1485 1487 1491 1494 1496 1498 1500 1503 1505 1507 1508 1509 1510 1511 1511 1514 1514 1516 1518 1520 1522 1523 1523 1523 1524 1525 1526 1526 1527 1527 1527 1527 1527 1527
1518 1517 1515 1507 1501 1498 1496 1496 1496 1492 1492 1490 1488 1486 1484 1483 1485 1489 1492 1495 1497 1500 1502 1502 1505 1506 1507 1508 1510 1512 1513 1513 1515 1516 1517 1518 1520 1521 1522 1522 1523 1525 1525 1525 1525 1526 1526 1526 1526
1511 1514 1509 1504 1501 1497 1492 1493 1491 1487 1488 1486 1484 1484 1484 1483 1486 1489 1492 1495 1497 1499 1501 1501 1503 1504 1505 1506 1508 1510 1511 1512 1514 1516 1517 1517 1518 1519 1520 1521 1521 1523 1525 1525 1524 1525 1526 1526 1525
1508 1508 1502 1499 1498 1494 1489 1488 1487 1486 1485 1485 1483 1483 1484 1484 1486 1489 1491 1493 1495 1496 1498 1499 1500 1501 1502 1503 1504 1506 1508 1510 1511 1512 1514 1516 1517 1517 1517 1518 1520 1521 1522 1523 1523 1523 1524 1525 1524
1504 1504 1497 1493 1496 1489 1488 1486 1485 1485 1485 1484 1482 1483 1484 1481 1484 1488 1489 1490 1492 1493 1494 1495 1497 1499 1499 1500 1502 1503 1504 1505 1506 1508 1510 1512 1513 1513 1514 1515 1517 1519 1520 1520 1522 1522 1523 1523 1523
1496 1492 1487 1482 1485 1485 1485 1486 1484 1484 1485 1482 1481 1481 1482 1484 1485 1486 1487 1488 1489 1490 1490 1492 1493 1495 1496 1497 1498 1499 1500 1501 1501 1502 1503 1506 1507 1508 1510 1513 1515 1517 1518 1519 1519 1520 1521 1521 1521
1486 1478 1478 1478 1480 1484 1484 1483 1483 1483 1481 1480 1479 1478 1481 1483 1483 1484 1485 1486 1488 1488 1487 1489 1490 1491 1492 1494 1494 1494 1494 1495 1495 1497 1497 1500 1502 1504 1506 1509 1511 1513 1515 1516 1516 1517 1517 1517 1517
1480 1475 1476 1477 1481 1481 1481 1480 1478 1479 1475 1478 1478 1476 1478 1479 1479 1480 1480 1483 1483 1484 1483 1485 1486 1487 1488 1489 1489 1489 1489 1489 1489 1489 1491 1494 1495 1496 1499 1502 1506 1508 1510 1511 1513 1513 1513 1513 1513
1474 1469 1474 1478 1478 1477 1479 1472 1474 1471 1471 1472 1473 1472 1471 1473 1474 1475 1477 1478 1479 1480 1479 1480 1481 1482 1484 1483 1482 1481 1480 1480 1481 1482 1483 1487 1489 1490 1494 1498 1500 1503 1506 1504 1507 1509 1509 1511 1512
1464 1469 1469 1473 1474 1475 1475 1461 1471 1466 1467 1461 1465 1464 1466 1467 1468 1468 1471 1473 1474 1475 1474 1476 1477 1477 1477 1477 1475 1474 1473 1472 1473 1473 1475 1479 1482 1483 1485 1491 1494 1498 1500 1502 1503 1504 1506 1507 1508
1467 1467 1466 1466 1470 1469 1472 1461 1442 1460 1464 1463 1461 1460 1458 1460 1461 1459 1464 1467 1469 1468 1469 1470 1472 1470 1470 1469 1467 1466 1465 1464 1465 1466 1468 1471 1474 1476 1481 1485 1488 1492 1496 1498 1498 1500 1501 1502 1504
1465 1467 1464 1453 1463 1460 1468 1452 1431 1453 1454 1447 1451 1448 1447 1449 1451 1454 1457 1458 1461 1462 1463 1464 1463 1462 1461 1460 1459 1458 1457 1457 1457 1459 1461 1463 1466 1470 1474 1478 1480 1486 1490 1492 1493 1495 1496 1497 1499
1459 1451 1449 1451 1450 1456 1460 1434 1440 1447 1448 1441 1442 1441 1441 1442 1444 1447 1450 1451 1453 1454 1456 1456 1455 1453 1451 1451 1450 1449 1449 1449 1451 1452 1454 1456 1461 1465 1469 1471 1473 1480 1483 1486 1489 1491 1492 1493 1494
1449 1449 1444 1444 1445 1450 1449 1432 1440 1444 1443 1439 1438 1436 1436 1436 1435 1438 1441 1444 1445 1446 1447 1447 1447 1444 1442 1441 1441 1442 1441 1443 1444 1445 1448 1452 1456 1460 1463 1465 1469 1474 1477 1481 1485 1487 1488 1489 1490
1451 1448 1446 1442 1442 1443 1439 1431 1434 1439 1438 1433 1432 1431 1429 1429 1433 1433 1433 1434 1434 1436 1438 1440 1440 1437 1435 1433 1433 1433 1433 1435 1437 1440 1444 1448 1452 1455 1457 1461 1466 1471 1475 1478 1482 1484 1485 1486 1486
1454 1455 1453 1448 1445 1445 1437 1434 1433 1436 1431 1429 1426 1424 1423 1423 1425 1425 1426 1425 1425 1426 1428 1431 1432 1429 1427 1426 1426 1427 1429 1431 1434 1437 1441 1444 1447 1450 1455 1459 1463 1468 1471 1474 1478 1480 1481 1482 1483
1448 1449 1449 1451 1444 1441 1442 1434 1428 1424 1425 1423 1420 1419 1419 1418 1416 1417 1416 1417 1417 1418 1420 1421 1421 1421 1421 1421 1421 1422 1425 1427 1430 1433 1437 1440 1444 1448 1453 1458 1462 1466 1469 1473 1475 1476 1477 1477 1477
1445 1444 1443 1446 1448 1444 1438 1431 1416 1414 1413 1414 1414 1413 1411 1410 1410 1407 1406 1407 1408 1410 1412 1413 1413 1414 1415 1415 1416 1418 1421 1425 1428 1432 1435 1439 1442 1446 1451 1456 1460 1464 1468 1470 1471 1472 1472 1473 1473
1441 1442 1442 1443 1444 1446 1440 1445 1403 1407 1403 1403 1406 1405 1403 1402 1401 1398 1396 1396 1397 1401 1403 1405 1406 1408 1408 1409 1411 1415 1418 1422 1426 1429 1433 1437 1441 1445 1450 1455 1458 1462 1464 1466 1467 1468 1468 1469 1470
1435 1436 1439 1442 1443 1444 1439 1444 1395 1400 1395 1395 1398 1399 1399 1396 1392 1389 1388 1388 1388 1392 1395 1397 1399 1401 1402 1403 1408 1412 1415 1419 1423 1427 1431 1435 1440 1445 1449 1453 1457 1459 1461 1463 1464 1464 1465 1466 1467
1433 1433 1437 1444 1440 1432 1425 1436 1401 1393 1393 1394 1397 1396 1394 1391 1385 1382 1380 1380 1382 1385 1388 1390 1392 1394 1397 1401 1406 1410 1413 1418 1423 1426 1430 1434 1439 1444 1448 1451 1454 1457 1458 1460 1460 1461 1462 1463 1465
1427 1426 1418 1425 1421 1420 1426 1420 1399 1392 1391 1391 1393 1393 1391 1388 1383 1379 1375 1374 1375 1378 1381 1384 1386 1390 1394 1399 1404 1408 1413 1417 1422 1426 1430 1435 1439 1443 1447 1450 1452 1454 1455 1456 1458 1459 1460 1461 1462
1423 1426 1419 1421 1418 1411 1408 1400 1394 1391 1387 1386 1387 1389 1388 1383 1378 1372 1368 1368 1370 1372 1375 1378 1382 1387 1393 1399 1403 1408 1413 1417 1421 1426 1431 1435 1438 1442 1445 1447 1449 1451 1453 1454 1456 1457 1457 1458 1460
1416 1416 1424 1421 1419 1415 1400 1399 1389 1382 1387 1390 1390 1390 1388 1382 1374 1367 1363 1364 1366 1369 1372 1377 1382 1388 1393 1399 1403 1409 1413 1418 1422 1426 1431 1434 1438 1440 1443 1444 1447 1449 1451 1453 1454 1455 1456 1457 1458
1417 1416 1416 1411 1408 1404 1397 1384 1377 1380 1389 1393 1392 1388 1384 1378 1372 1367 1364 1363 1366 1368 1372 1378 1383 1388 1394 1400 1404 1409 1414 1418 1423 1428 1431 1434 1436 1439 1441 1443 1446 1448 1450 1451 1452 1453 1454 1456 1456
1422 1420 1419 1411 1411 1407 1407 1395 1380 1384 1387 1390 1387 1384 1381 1379 1374 1369 1366 1366 1368 1370 1374 1379 1385 1390 1396 1401 1406 1411 1415 1419 1424 1428 1430 1432 1435 1438 1440 1443 1445 1447 1449 1450 1450 1452 1452 1453 1453
Wind_Speed
9 6 6 5 4 2 4 5 4 4 3 3 4 5 18 8 13 3 13 21 18 20 22 23 20 18 14 12 12 12 13 14 14 13 12 11 9 8 7 7 6 4 3 3 2 1 0 0 1
8 8 9 2 3 6 5 6 8 10 6 15 7 6 10 8 15 3 20 23 19 18 21 21 20 18 14 13 13 13 14 15 15 13 12 10 9 7 6 6 6 5 4 3 2 1 1 2 1
10 11 5 3 4 10 4 6 10 0 15 13 4 6 5 5 20 6 22 23 20 19 20 18 19 19 15 13 14 15 16 17 16 14 13 11 9 8 6 5 5 4 4 4 3 2 1 2 2
10 5 1 5 13 11 7 1 3 11 6 2 7 3 4 6 14 15 21 23 20 20 21 19 18 17 16 14 16 16 16 17 17 16 15 14 12 10 9 7 5 3 2 2 1 1 0 2 2
11 3 5 6 16 8 8 12 8 11 7 9 6 3 3 9 13 21 24 23 21 22 21 19 18 18 16 15 16 17 19 19 18 18 17 16 14 12 10 8 7 5 3 1 1 0 1 2 4
5 2 5 15 16 12 12 12 9 15 15 9 5 3 3 11 17 26 25 23 22 21 19 17 21 21 19 18 20 20 22 21 21 21 20 19 17 15 13 11 9 7 4 2 1 1 3 4 4
6 3 8 7 9 15 16 11 13 11 7 5 3 2 1 14 20 24 24 23 21 18 19 20 22 22 21 22 23 23 24 24 24 24 23 22 21 19 17 15 12 10 7 4 3 2 3 4 5
8 3 11 9 13 15 4 5 5 11 6 2 2 1 3 4 18 21 20 22 20 19 22 22 23 23 22 24 24 27 26 27 26 26 27 25 24 23 22 18 16 13 10 7 5 5 5 4 5
12 7 13 19 14 10 3 6 4 3 6 3 2 5 11 3 18 17 18 20 22 21 21 21 24 25 26 28 29 29 30 30 30 30 30 29 30 28 26 23 19 16 13 10 7 7 7 6 6
12 11 20 11 15 8 15 8 5 4 5 4 5 8 3 8 2 13 16 18 20 20 20 20 21 25 27 29 32 32 33 34 35 35 36 35 35 34 30 25 22 18 15 12 10 10 10 9 8
14 20 20 19 22 17 24 20 11 10 12 15 9 3 7 6 4 7 9 16 17 20 24 24 24 26 28 30 33 34 37 38 40 40 40 38 38 37 33 30 26 23 19 16 15 14 14 12 10
15 25 28 18 15 10 17 20 15 19 30 18 18 21 24 22 22 18 14 15 17 20 22 28 31 32 31 34 37 38 41 42 43 44 44 42 42 42 39 35 31 27 23 20 19 18 18 16 13
25 23 18 29 20 17 15 24 22 25 28 26 27 25 28 29 27 23 19 20 21 20 18 17 23 23 26 30 33 39 44 46 47 47 47 45 44 46 41 38 35 30 25 25 22 22 20 16 15
16 24 26 20 19 22 20 32 23 22 19 25 20 26 27 25 25 21 22 24 24 22 22 14 17 21 26 29 33 34 38 44 47 48 48 47 45 47 45 40 38 33 29 26 25 23 18 19 18
23 19 13 20 29 17 8 24 36 31 26 33 33 34 31 28 28 31 28 27 26 22 16 21 24 28 32 33 30 28 32 36 40 44 45 45 42 44 42 38 38 36 32 27 27 23 21 21 20
11 17 22 26 11 11 17 31 34 25 29 36 34 38 33 29 28 27 21 20 24 23 22 24 31 28 28 27 25 29 30 33 36 36 39 40 39 37 33 30 33 34 34 29 27 25 23 22 21
14 21 26 24 23 15 19 35 27 24 20 25 23 22 23 23 27 32 27 25 26 25 31 32 30 29 27 24 25 28 30 33 31 31 34 36 33 28 22 22 23 26 30 28 27 24 21 20 19
18 24 21 18 13 22 24 34 23 22 21 24 24 26 28 30 37 41 40 39 38 37 32 28 30 26 23 25 24 26 29 28 29 28 31 29 25 21 18 18 17 20 24 25 23 19 17 17 18
10 13 19 18 9 21 25 28 24 23 29 30 33 32 34 35 31 35 43 40 34 28 25 29 25 20 23 24 24 26 26 26 26 26 26 21 17 16 14 15 14 13 17 18 17 14 13 15 17
22 18 10 8 9 8 16 21 16 15 20 26 29 32 34 34 32 36 38 34 30 27 29 27 25 22 24 25 23 21 21 22 22 23 18 15 15 14 14 13 10 8 13 18 16 13 14 16 16
18 22 20 10 6 12 12 22 23 22 24 29 33 33 35 35 35 34 38 34 31 28 24 25 23 23 25 24 18 17 18 18 20 20 17 16 15 14 14 12 10 11 13 14 13 14 15 15 14
19 11 15 20 12 13 4 11 16 17 18 19 24 28 33 33 31 43 47 44 40 33 28 25 26 26 26 23 19 17 17 17 15 13 15 15 16 16 15 12 13 12 13 12 13 14 15 14 15
18 11 9 5 9 11 18 10 16 12 20 19 16 27 30 32 32 33 38 39 40 37 33 32 28 25 22 19 18 17 16 13 11 15 16 18 18 16 15 15 14 13 11 13 13 13 14 13 11
13 16 21 17 13 15 16 12 23 17 21 18 17 20 17 20 21 23 27 28 27 22 23 20 18 20 16 15 15 15 13 14 16 19 20 19 19 17 20 15 14 11 12 13 13 14 11 9 10
9 12 9 10 11 17 11 13 23 9 6 1 8 19 20 16 17 19 20 20 21 22 21 20 18 16 13 15 16 14 13 12 14 17 18 18 18 17 18 15 13 14 13 13 13 10 10 9 10
15 14 7 15 12 15 13 13 9 10 16 15 9 8 14 17 17 18 21 16 17 18 19 18 17 15 17 18 17 15 14 16 15 14 15 16 16 14 12 12 14 14 14 12 10 10 10 9 10
12 10 16 5 1 8 10 17 16 16 14 12 13 11 18 24 25 24 21 14 12 14 15 15 18 19 21 20 19 19 17 17 17 18 17 16 13 12 12 12 13 13 11 10 9 9 9 8 8
14 10 9 7 6 8 9 15 9 3 9 9 12 16 22 25 31 27 14 8 10 11 13 17 20 22 22 21 20 19 19 18 17 16 15 13 11 10 10 12 12 11 10 9 9 8 8 8 8
7 7 8 9 12 4 3 3 4 7 9 8 12 22 25 27 31 22 6 4 10 16 21 25 25 25 24 22 22 22 21 18 15 15 13 11 9 9 10 11 11 10 10 9 8 7 8 8 9
3 4 7 8 20 11 10 5 6 9 8 13 18 28 28 25 29 16 4 7 17 22 26 26 26 25 24 24 23 22 19 17 15 13 11 10 10 11 11 10 10 9 8 8 7 7 8 8 8
Wind_Direction
197 194 158 159 202 249 239 238 247 255 237 165 183 172 182 177 165 198 168 174 169 182 185 182 184 175 168 177 175 170 169 172 176 174 167 164 163 163 159 153 142 136 117 103 90 102 150 233 223
197 179 157 164 227 220 234 233 230 235 278 317 196 181 187 207 199 264 164 168 173 178 183 178 181 178 178 184 189 187 183 183 184 182 180 177 170 165 158 156 151 145 136 127 109 104 168 169 193
183 175 167 201 214 223 237 214 231 251 312 280 284 182 178 208 200 180 171 167 167 181 191 180 186 181 186 197 202 202 196 193 192 192 195 192 188 180 171 169 165 161 150 144 133 121 188 209 179
173 182 180 225 229 235 233 181 120 323 310 264 248 242 226 223 182 184 174 168 172 180 192 191 194 186 192 205 212 211 208 205 202 203 205 205 203 197 194 189 179 173 161 153 134 106 306 289 254
178 195 224 233 241 248 241 267 296 290 284 280 235 218 228 195 192 178 177 177 184 192 193 194 201 202 202 211 219 221 221 215 216 216 217 218 215 214 212 208 202 203 196 193 184 323 311 298 299
176 259 225 231 237 241 253 247 270 271 279 267 226 264 205 187 175 174 182 186 192 200 192 193 209 213 214 222 224 226 225 224 226 226 225 226 225 224 221 220 220 225 231 230 220 306 318 310 298
198 197 241 250 259 257 253 251 240 264 278 217 194 231 163 174 175 182 185 193 202 204 207 210 215 217 222 229 232 234 231 233 233 233 233 232 232 231 230 229 229 231 238 245 256 269 269 291 311
205 229 236 237 241 253 244 220 229 243 231 301 87 235 19 225 188 192 194 198 204 209 217 220 225 228 232 236 240 240 237 240 240 240 239 238 238 237 234 231 231 235 240 253 263 272 271 289 307
195 228 238 233 221 231 260 239 224 242 257 260 206 113 38 39 192 197 198 206 212 216 222 227 233 237 241 241 243 246 243 242 244 244 243 241 240 238 234 234 236 238 241 248 261 262 267 278 291
196 221 230 227 224 232 242 238 272 298 272 266 222 186 333 42 173 207 210 216 223 230 237 240 246 250 251 250 250 248 249 249 246 245 244 240 242 240 239 239 237 239 241 246 254 255 259 264 275
211 231 228 235 228 233 254 258 255 261 265 253 255 269 288 236 246 260 281 259 259 264 258 257 257 258 259 260 260 257 255 253 253 249 247 243 244 245 239 237 234 234 238 243 251 254 255 250 254
234 232 237 243 237 231 245 264 250 243 252 268 274 282 285 281 272 264 265 268 267 274 274 272 267 264 269 271 269 267 263 262 258 255 250 246 247 247 242 239 236 237 240 247 250 256 255 248 250
233 233 240 244 241 243 268 262 264 259 261 266 274 277 276 275 273 269 261 262 260 266 273 271 273 268 271 273 274 273 269 265 264 260 257 252 250 251 246 244 241 240 245 248 249 254 249 252 257
236 236 241 242 236 243 248 265 258 250 261 269 272 269 268 269 270 270 272 268 261 269 273 265 279 283 282 284 277 275 270 267 264 263 261 258 253 254 254 249 246 242 246 252 249 253 256 256 256
251 253 242 234 233 240 227 276 254 253 252 258 263 264 266 269 274 276 282 274 272 274 259 275 289 291 286 280 277 276 267 269 267 264 264 263 258 257 259 256 249 243 248 249 250 252 255 254 256
232 235 243 233 203 227 195 252 258 262 261 261 262 269 276 274 275 278 274 267 268 274 280 288 292 287 285 286 282 273 264 266 267 264 260 261 262 262 263 262 252 243 244 246 245 253 251 251 257
224 234 228 239 218 216 197 245 252 256 263 262 264 269 271 274 275 275 274 274 277 284 291 293 286 289 290 286 284 274 264 263 265 259 256 259 262 263 263 257 249 238 240 237 240 246 245 254 259
231 235 247 240 222 218 223 246 250 246 264 262 266 271 274 274 273 277 282 279 279 285 287 278 285 290 290 286 273 267 262 260 258 252 251 259 261 259 254 247 230 226 229 232 231 232 244 254 253
255 280 251 248 223 223 228 246 248 246 252 260 263 266 268 269 274 277 280 283 282 276 271 279 283 291 297 295 267 262 254 252 252 245 249 255 253 240 234 221 209 204 218 213 210 225 240 251 256
247 250 258 265 243 244 247 256 257 257 255 258 264 265 268 274 275 277 280 281 282 277 264 268 281 291 301 296 268 256 254 255 245 244 249 241 229 219 202 202 192 193 193 197 208 231 248 254 255
237 240 236 252 287 270 271 269 264 255 252 258 259 263 267 267 271 276 281 277 276 277 269 276 285 287 291 291 260 241 240 238 240 239 232 219 203 191 191 187 184 193 199 204 219 240 251 262 264
242 225 234 235 246 246 227 276 258 256 249 245 257 261 264 268 267 272 274 275 274 274 277 280 282 282 282 276 249 235 236 241 246 232 213 193 182 182 183 179 189 194 199 212 231 246 259 261 255
242 222 203 206 240 265 250 275 268 250 260 262 264 263 268 269 269 266 271 273 273 269 271 277 273 271 271 254 235 229 228 220 211 194 183 176 175 178 187 185 188 197 211 226 247 261 267 255 231
229 221 222 239 247 249 241 236 276 259 263 267 262 266 285 291 280 273 280 279 273 265 260 254 259 262 254 229 211 207 209 201 190 177 172 170 173 182 186 191 199 208 229 239 256 262 248 229 224
215 178 182 209 214 237 216 214 244 14 151 166 303 297 312 316 299 301 296 283 270 255 249 253 249 240 222 202 191 187 182 182 181 171 171 171 177 182 188 202 215 224 235 251 258 240 228 220 223
222 206 210 213 209 226 192 228 236 234 265 273 292 293 318 328 332 318 316 296 252 242 238 236 225 208 195 181 176 169 166 162 161 163 167 171 172 178 189 208 219 229 243 248 228 224 220 224 222
195 215 233 299 311 220 195 245 270 262 278 284 303 321 345 343 339 331 319 288 248 227 225 210 192 182 175 172 169 163 160 159 158 155 158 165 173 185 197 212 226 235 228 213 216 214 209 210 211
211 205 200 210 220 216 210 236 239 175 153 51 22 1 340 337 345 338 317 266 211 200 180 171 169 167 164 163 160 159 157 154 156 162 169 173 183 195 213 222 220 204 199 198 190 184 185 196 206
182 206 224 241 237 267 247 176 225 193 89 33 3 356 347 342 345 339 318 194 167 157 154 156 161 161 156 157 155 153 151 156 162 170 173 181 194 201 203 190 182 185 184 186 190 197 209 216 224
309 281 277 235 222 242 274 280 92 114 58 6 352 349 347 345 342 335 311 168 156 151 153 157 159 157 155 155 155 156 158 162 167 175 182 180 177 174 171 173 174 179 184 193 200 218 229 227 224